Regional Weather Roundup
Issued by NWS

Home | Current Version | Previous Version | Graphics & Text | Print | Product List | Glossary On
Versions: 1 2 3 4 5 6 7 8 9 10 11 12 13 14 15 16 17 18 19 20 21 22 23 24 25 26 27 28 29 30 31 32 33 34 35 36 37 38 39 40 41 42 43 44 45 46 47 48 49 50
000
ASUS43 KIND 280509
RWRIN

WEATHER ROUNDUP FOR INDIANA
NATIONAL WEATHER SERVICE INDIANAPOLIS IN
100 AM EDT TUE JUL 28 2015

NOTE: "FAIR" INDICATES FEW OR NO CLOUDS BELOW 12,000 FEET WITH NO
SIGNIFICANT WEATHER AND/OR OBSTRUCTIONS TO VISIBILITY.

* - STATION DOES NOT REPORT WEATHER SUCH AS PRECIPITATION OR FOG.

+ - STATION NOT QUALITY CONTROLLED BY THE NATIONAL WEATHER SERVICE.
    USE DATA WITH CAUTION...ESPECIALLY DEWPOINT AND RELATIVE
    HUMIDITY OBSERVATIONS.

INZ001>003-010>013-019-020-280600-
NORTHWEST INDIANA

CITY           SKY/WX    TMP DP  RH WIND       PRES   REMARKS
GARY /AIRPORT/ PTCLDY    73  70  89 E3        30.01F
KNOX *+        PTCLDY    66  66 100 E3        30.01S
LA PORTE +     PTCLDY    67  67  98 CALM      30.03S
MICHIGAN CITY+ PTCLDY    66  66 100 CALM      30.02F FOG
MONTICELLO +   MOCLDY    73  67  82 NE5       29.99F
RENSSELAER +   MOCLDY    70  68  94 NE6       30.00S
VALPARAISO     PTCLDY    68  64  87 NE3       30.02F

$$

LMZ046-743>745-280600-
SOUTHERN LAKE MICHIGAN

STATION/POSITION TIME  TEMP    WIND        PRES    WAVE
                       AIR SEA DIR/SP/G            HT
                 (UTC) (F)     (DEG/KT/KT) (MB)    (FT)
BURNS HARBOR     0400   73      80/  8/  9 1016.9S
MICHIGAN CITY    0415   73      60/  2/  2   N/A
5NW MICH CITY    0500   74 74   90/  6/  8   N/A     1

$$

INZ004-005-014>016-021>024-280600-
NORTH CENTRAL INDIANA

CITY           SKY/WX    TMP DP  RH WIND       PRES   REMARKS
GOSHEN         CLEAR     67  63  87 CALM      30.04R
LOGANSPORT +   PTCLDY    72  61  68 NE3       30.01F
PERU/GRISSOM   PTCLDY    71  65  82 NE5       30.00F
ROCHESTER +    CLEAR     72  66  83 E3        30.03S
SOUTH BEND     MOCLDY    70  63  78 CALM      30.03F
WARSAW +       CLEAR     68  63  83 CALM      30.04S

$$

INZ006>009-017-018-025>027-280600-
NORTHEAST INDIANA

CITY           SKY/WX    TMP DP  RH WIND       PRES   REMARKS
ANGOLA *+      CLEAR     64  55  72 CALM      30.05F
AUBURN +       PTCLDY    68  61  77 CALM      30.05S
FORT WAYNE     PTCLDY    71  63  75 E5        30.03S
HUNTINGTON +   CLEAR     70  64  83 NE3       30.02S

$$

INZ028-029-035-036-043>045-051>053-280600-
WEST CENTRAL INDIANA

CITY           SKY/WX    TMP DP  RH WIND       PRES   REMARKS
CRAWFORDSVL +  MOCLDY    72  71  98 CALM        N/A
GREENCASTLE +  MOCLDY    73  68  83 CALM      30.00S
LAFAYETTE      MOCLDY    73  67  81 NE5       29.98F
TERRE HAUTE    MOCLDY    75  73  93 CALM      29.97S

$$

INZ030>032-037>040-046>048-054>057-064-065-280600-
CENTRAL INDIANA

CITY           SKY/WX    TMP DP  RH WIND       PRES   REMARKS
FISHERS *+     MOCLDY    73  73 100 CALM      30.01
FRANKFORT +    MOCLDY   N/A N/A N/A CALM      30.02S
GREENWOOD *+   MOCLDY    75  70  83 E5        30.00F
INDIANAPOLIS   CLOUDY    78  71  79 E8        29.99S
-EAGLE CREEK   MOCLDY    76  71  85 E5        29.99S
KOKOMO *+      PTCLDY    70  64  83 E5        30.01F
MARION +       PTCLDY    70  65  83 CALM      30.02S
MT COMFORT *+  MOCLDY    73 N/A N/A E5        30.01F
SHELBYVILLE    MOCLDY    75  71  87 E5        29.99F
ZIONSVILLE +   MOCLDY    74  70  88 E3        30.02S

$$

INZ033-034-041-042-049-050-058-059-280600-
EAST CENTRAL INDIANA

CITY           SKY/WX    TMP DP  RH WIND       PRES   REMARKS
MUNCIE         CLOUDY    73  69  87 SE3       30.02F

$$

INZ060-061-067>069-081>083-085>088-280600-
SOUTHWEST INDIANA

CITY           SKY/WX    TMP DP  RH WIND       PRES   REMARKS
EVANSVILLE     CLOUDY    78  71  79 W5        29.96F
HUNTINGBURG *+ CLOUDY    79  75  89 CALM      29.96F
WASHINGTON +   CLOUDY    76  73  88 N3        29.95F

$$

INZ062-063-066-070>080-084-089>092-280600-
SOUTH CENTRAL AND SOUTHEAST INDIANA

CITY           SKY/WX    TMP DP  RH WIND       PRES   REMARKS
BLOOMINGTON    MOCLDY    76  73  91 SE7       29.99S
MADISON *+     MOCLDY    75  72  88 NE3       30.01F
NORTH VERNON + MOCLDY    77  77 100 CALM      30.00F
SEYMOUR +      MOCLDY    77  75  94 CALM      29.98S

$$




USA.gov is the U.S. government's official web portal to all federal, state and local government web resources and services.